Tracking 19800 objects as of 23-Jul-2019
HD Live streaming from Space Station
objects crossing your sky now

BEIDOU 1B

Track BEIDOU 1B now!
BEIDOU 1B is classified as:


NORAD ID: 26643
Int'l Code: 2000-082A
Perigee: 35,725.0 km
Apogee: 36,440.3 km
Inclination: 9.1 °
Period: 1,450.9 minutes
Semi major axis: 42453 km
RCS: 0.1238 m2 (medium)
Launch date: December 20, 2000
Source: People's Republic of China (PRC)
Launch site: Xichang Space Center, China (XSC)

Space-bsaed navigation and positioning system to improve accuracy of weapons and situational awareness of military forces.
aabbcc
Your satellite tracking list
Your tracking list is empty




NASA's NSSDC Master Catalog

Two Line Element Set (TLE):
1 26643U 00082A   19202.09692912 +.00000025 +00000-0 +00000-0 0  9990
2 26643 009.0547 043.2603 0084243 025.4820 156.0477 00.99250106027032
Source of the keplerian elements: AFSPC